Weather in Bonaventure

Canada     48°02′57″N   65°29′16″W
temp.,
°C
wind,
m/s
gust,
m/s
humid.,
%
clouds,
%
prec.,
mm/h
press.,
hPa
HPBL,
m
16 may, sun
sun1623:00+5ene4591100 0.6 102480
02:00+5e589299 1.0 1024160
05:00+5e339377 0.0 102635
08:00+5e239087 0.0 102790
11:00+6e458936 0.0 1028190
14:00+7e558332 0.0 1027273
17:00+7e678215 0.0 1027200
20:00+5e68865 0.0 1028119
17 may, mon
mon1723:00+4e469050 0.0 102880
02:00+4ene34919 0.0 102846
05:00+4ene3387100 0.0 102858
08:00+6e338190 0.0 1028122
11:00+6sse1183100 0.0 1028184
14:00+6ese4585100 0.3 1026188
17:00+7e57815 0.0 1025192
20:00+5e57885 0.0 102588
18 may, tue
tue1823:00+4e45925 0.0 102457
02:00+4ene2293100 0.0 102320
05:00+4e2293100 0.0 102116
08:00+5ese1191100 0.2 102054
11:00+6nne2291100 0.5 101939
14:00+5wnw349753 2.3 101883
17:00+7wsw239198 0.1 1017297
20:00+8ne44780 0.1 101816
19 may, wed
wed1923:00+6nw11851 0.0 101812
02:00+5n22880 0.0 101920
05:00+4n2387100 0.0 102027
08:00+7nnw566643 0.0 1022295
11:00+8wnw4560100 0.0 1022337
14:00+9w126187 0.0 1023387
17:00+6ese81186100 0.0 1025232
20:00+5e71193100 0.0 1027219
20 may, thu
thu2023:00+5e349623 0.0 102957
02:00+5ene2296100 0.0 103018
05:00+5ne009658 0.0 103111
08:00+6sw119271 0.0 103189
11:00+7se228690 0.0 1030145
14:00+9s12783 0.0 1029164
17:00+10ese22763 0.0 102772
20:00+10ene22820 0.0 102711